When you browse on this site, cookies collect data to enhance your experience and personalize the content and advertising you see.
Visit our Privacy Policy to learn more. By continuing to use the site, you agree to this use of cookies and data.
  • In Austria
  • List of Countries
  • For 7 days
  • Water Temperature
  • Satellite Maps
  • Weather Map
  • News
  • Weather Widgets
  • user-avatar
    Login

    Hourly Weather Wien

    Today, 20 July, Saturday

    Time Temperature Precipitation Wind Pressure Humidity
    00:00 +21°C° 0 mm 1 mps 744 mmHg 77%
    01:00 +21°C° 0 mm 1 mps 744 mmHg 79%
    02:00 +20°C° 0 mm 1 mps 744 mmHg 80%
    03:00 +18°C° 0 mm 0 mps 744 mmHg 82%
    04:00 +18°C° 0 mm 0 mps 744 mmHg 83%
    05:00 +19°C° 0 mm 0 mps 744 mmHg 79%
    06:00 +20°C° 0 mm 0 mps 744 mmHg 75%
    07:00 +21°C° 0 mm 0 mps 744 mmHg 71%
    08:00 +25°C° 0 mm 1 mps 744 mmHg 64%
    09:00 +27°C° 0 mm 1 mps 744 mmHg 57%
    10:00 +28°C° 0 mm 1 mps 744 mmHg 50%
    11:00 +30°C° 0 mm 2 mps 744 mmHg 46%
    12:00 +31°C° 0 mm 2 mps 744 mmHg 42%
    13:00 +32°C° 0 mm 2 mps 744 mmHg 38%
    14:00 +32°C° 0 mm 2 mps 743 mmHg 38%
    15:00 +34°C° 0 mm 2 mps 743 mmHg 37%
    16:00 +34°C° 0 mm 2 mps 743 mmHg 36%
    17:00 +32°C° 0 mm 2 mps 743 mmHg 41%
    18:00 +31°C° 0 mm 2 mps 743 mmHg 45%
    19:00 +29°C° 0 mm 2 mps 744 mmHg 50%
    20:00 +28°C° 0 mm 2 mps 744 mmHg 54%
    21:00 +27°C° 0 mm 2 mps 744 mmHg 57%
    22:00 +26°C° 0 mm 1 mps 744 mmHg 61%
    23:00 +25°C° 0 mm 1 mps 744 mmHg 63%

    Tomorrow, 21 July, Sunday

    Time Temperature Precipitation Wind Pressure Humidity
    00:00 +24°C° 0 mm 1 mps 744 mmHg 66%
    01:00 +24°C° 0 mm 1 mps 744 mmHg 68%
    02:00 +23°C° 0 mm 1 mps 744 mmHg 69%
    03:00 +23°C° 0 mm 1 mps 744 mmHg 70%
    04:00 +20°C° 0 mm 0 mps 744 mmHg 72%
    05:00 +24°C° 0 mm 1 mps 745 mmHg 67%
    06:00 +25°C° 0 mm 1 mps 745 mmHg 63%
    07:00 +26°C° 0 mm 1 mps 745 mmHg 59%
    08:00 +27°C° 0 mm 1 mps 745 mmHg 56%
    09:00 +28°C° 0 mm 2 mps 746 mmHg 53%
    10:00 +30°C° 0 mm 2 mps 746 mmHg 50%
    11:00 +30°C° 0.1 mm 3 mps 746 mmHg 49%
    12:00 +30°C° 0.1 mm 5 mps 746 mmHg 49%
    13:00 +30°C° 0.1 mm 6 mps 746 mmHg 48%
    14:00 +29°C° 0 mm 5 mps 747 mmHg 51%
    15:00 +28°C° 0 mm 4 mps 747 mmHg 53%
    16:00 +27°C° 0 mm 3 mps 747 mmHg 56%
    17:00 +27°C° 0.1 mm 3 mps 747 mmHg 59%
    18:00 +26°C° 0.1 mm 3 mps 747 mmHg 61%
    19:00 +26°C° 0.1 mm 3 mps 747 mmHg 64%
    20:00 +25°C° 0.2 mm 3 mps 748 mmHg 68%
    21:00 +24°C° 0.2 mm 3 mps 748 mmHg 73%
    22:00 +22°C° 0.2 mm 3 mps 749 mmHg 78%
    23:00 +22°C° 0 mm 3 mps 749 mmHg 78%

    Day after tomorrow, 22 July, Monday

    Time Temperature Precipitation Wind Pressure Humidity
    00:00 +21°C° 0 mm 3 mps 749 mmHg 79%
    01:00 +21°C° 0 mm 2 mps 749 mmHg 79%
    02:00 +20°C° 0 mm 2 mps 749 mmHg 80%
    03:00 +20°C° 0 mm 2 mps 749 mmHg 81%
    04:00 +19°C° 0 mm 2 mps 749 mmHg 82%
    05:00 +20°C° 0 mm 2 mps 749 mmHg 78%
    06:00 +21°C° 0 mm 2 mps 749 mmHg 73%
    07:00 +23°C° 0 mm 2 mps 749 mmHg 69%
    08:00 +24°C° 0 mm 2 mps 750 mmHg 63%
    09:00 +25°C° 0 mm 2 mps 750 mmHg 56%
    10:00 +27°C° 0 mm 3 mps 750 mmHg 50%
    11:00 +28°C° 0 mm 3 mps 750 mmHg 46%
    12:00 +29°C° 0 mm 3 mps 749 mmHg 42%
    13:00 +30°C° 0 mm 4 mps 749 mmHg 38%
    14:00 +30°C° 0 mm 4 mps 749 mmHg 38%
    15:00 +30°C° 0 mm 4 mps 749 mmHg 38%
    16:00 +30°C° 0 mm 4 mps 749 mmHg 39%
    17:00 +29°C° 0 mm 3 mps 749 mmHg 43%
    18:00 +27°C° 0 mm 3 mps 748 mmHg 48%
    19:00 +26°C° 0 mm 2 mps 748 mmHg 53%
    20:00 +25°C° 0 mm 2 mps 749 mmHg 56%
    21:00 +24°C° 0 mm 1 mps 749 mmHg 60%
    22:00 +23°C° 0 mm 1 mps 749 mmHg 63%
    23:00 +23°C° 0 mm 1 mps 749 mmHg 64%

    23 July, Tuesday

    Time Temperature Precipitation Wind Pressure Humidity
    00:00 +22°C° 0 mm 1 mps 749 mmHg 65%
    01:00 +22°C° 0 mm 1 mps 749 mmHg 67%
    02:00 +22°C° 0 mm 1 mps 749 mmHg 68%
    03:00 +21°C° 0 mm 1 mps 749 mmHg 69%
    04:00 +21°C° 0 mm 1 mps 748 mmHg 70%
    05:00 +22°C° 0 mm 1 mps 749 mmHg 67%
    06:00 +23°C° 0 mm 2 mps 749 mmHg 63%
    07:00 +24°C° 0 mm 2 mps 749 mmHg 60%
    08:00 +25°C° 0 mm 2 mps 749 mmHg 54%
    09:00 +26°C° 0 mm 3 mps 749 mmHg 49%
    10:00 +27°C° 0 mm 3 mps 749 mmHg 43%
    11:00 +28°C° 0 mm 3 mps 748 mmHg 42%
    12:00 +29°C° 0 mm 4 mps 748 mmHg 40%
    13:00 +30°C° 0 mm 4 mps 748 mmHg 39%
    14:00 +30°C° 0 mm 4 mps 747 mmHg 39%
    15:00 +30°C° 0 mm 4 mps 747 mmHg 39%
    16:00 +30°C° 0 mm 4 mps 747 mmHg 39%
    17:00 +29°C° 0 mm 3 mps 747 mmHg 43%
    18:00 +28°C° 0 mm 3 mps 747 mmHg 48%
    19:00 +27°C° 0 mm 2 mps 747 mmHg 52%
    20:00 +26°C° 0 mm 2 mps 747 mmHg 56%
    21:00 +25°C° 0 mm 1 mps 747 mmHg 60%
    22:00 +23°C° 0 mm 1 mps 747 mmHg 64%
    23:00 +23°C° 0 mm 1 mps 747 mmHg 66%

    24 July, Wednesday

    Time Temperature Precipitation Wind Pressure Humidity
    00:00 +20°C° 0 mm 0 mps 747 mmHg 68%
    01:00 +20°C° 0 mm 0 mps 747 mmHg 70%
    02:00 +19°C° 0 mm 0 mps 747 mmHg 71%
    03:00 +19°C° 0 mm 0 mps 747 mmHg 72%
    04:00 +19°C° 0 mm 0 mps 747 mmHg 73%
    05:00 +20°C° 0 mm 0 mps 747 mmHg 68%
    06:00 +22°C° 0 mm 0 mps 747 mmHg 64%
    07:00 +25°C° 0 mm 1 mps 747 mmHg 59%
    08:00 +27°C° 0 mm 1 mps 747 mmHg 54%
    09:00 +28°C° 0 mm 1 mps 747 mmHg 49%
    10:00 +30°C° 0 mm 1 mps 747 mmHg 44%
    11:00 +31°C° 0 mm 1 mps 747 mmHg 41%
    12:00 +32°C° 0 mm 1 mps 747 mmHg 38%
    13:00 +33°C° 0 mm 1 mps 746 mmHg 35%
    14:00 +33°C° 0 mm 1 mps 746 mmHg 34%
    15:00 +35°C° 0 mm 2 mps 746 mmHg 33%
    16:00 +35°C° 0 mm 2 mps 746 mmHg 32%
    17:00 +32°C° 0 mm 2 mps 746 mmHg 37%
    18:00 +31°C° 0 mm 2 mps 746 mmHg 42%
    19:00 +30°C° 0 mm 2 mps 746 mmHg 47%
    20:00 +28°C° 0 mm 2 mps 746 mmHg 50%
    21:00 +27°C° 0 mm 2 mps 746 mmHg 53%
    22:00 +26°C° 0 mm 1 mps 746 mmHg 56%
    23:00 +25°C° 0 mm 1 mps 746 mmHg 58%

    25 July, Thursday

    Time Temperature Precipitation Wind Pressure Humidity
    00:00 +25°C° 0 mm 1 mps 746 mmHg 60%
    01:00 +24°C° 0 mm 1 mps 746 mmHg 62%
    02:00 +24°C° 0 mm 1 mps 746 mmHg 64%
    03:00 +23°C° 0 mm 1 mps 746 mmHg 66%
    04:00 +23°C° 0 mm 1 mps 746 mmHg 68%
    05:00 +24°C° 0 mm 1 mps 746 mmHg 64%
    06:00 +25°C° 0 mm 1 mps 747 mmHg 61%
    07:00 +26°C° 0 mm 1 mps 747 mmHg 57%
    08:00 +28°C° 0 mm 1 mps 747 mmHg 52%
    09:00 +30°C° 0 mm 2 mps 747 mmHg 46%
    10:00 +32°C° 0 mm 2 mps 747 mmHg 41%
    11:00 +34°C° 0 mm 3 mps 747 mmHg 37%
    12:00 +35°C° 0 mm 3 mps 746 mmHg 34%
    13:00 +36°C° 0 mm 3 mps 746 mmHg 30%
    14:00 +36°C° 0 mm 3 mps 746 mmHg 29%
    15:00 +37°C° 0 mm 3 mps 746 mmHg 28%
    16:00 +37°C° 0 mm 3 mps 745 mmHg 27%
    17:00 +35°C° 0 mm 3 mps 745 mmHg 31%
    18:00 +33°C° 0 mm 3 mps 745 mmHg 36%
    19:00 +31°C° 0 mm 3 mps 745 mmHg 40%
    20:00 +29°C° 0 mm 2 mps 745 mmHg 42%
    21:00 +28°C° 0 mm 2 mps 746 mmHg 44%
    22:00 +27°C° 0 mm 1 mps 746 mmHg 46%
    23:00 +26°C° 0 mm 1 mps 746 mmHg 48%
    Show more